TimeCST,TemperatureF,Dew PointF,Humidity,Sea Level PressureIn,VisibilityMPH,Wind Direction,Wind SpeedMPH,Gust SpeedMPH,PrecipitationIn,Events,Conditions,WindDirDegrees,DateUTC
12:55 AM,13.3,0.1,56,30.41,10.0,NNW,4.6,-,N/A,,Clear,340,2013-01-22 06:55:00
1:55 AM,14.4,0.9,55,30.42,10.0,NNW,5.8,-,N/A,,Mostly Cloudy,330,2013-01-22 07:55:00
2:55 AM,14.7,-1.7,48,30.42,10.0,NNW,4.6,-,N/A,,Overcast,330,2013-01-22 08:55:00
3:55 AM,14.4,-0.8,51,30.43,10.0,NW,5.8,-,N/A,,Overcast,320,2013-01-22 09:55:00
4:55 AM,13.5,-1.7,51,30.44,10.0,NW,9.2,-,N/A,,Scattered Clouds,310,2013-01-22 10:55:00
5:55 AM,13.3,-0.6,54,30.46,10.0,NNW,6.9,-,N/A,,Mostly Cloudy,330,2013-01-22 11:55:00
6:55 AM,12.0,-0.9,56,30.46,10.0,North,4.6,-,N/A,,Clear,350,2013-01-22 12:55:00
7:55 AM,13.5,-1.1,52,30.47,10.0,North,6.9,-,N/A,,Overcast,360,2013-01-22 13:55:00
8:55 AM,14.0,-0.8,52,30.50,10.0,NNW,4.6,-,N/A,,Overcast,340,2013-01-22 14:55:00
9:55 AM,15.3,-0.2,50,30.51,10.0,WNW,4.6,-,N/A,,Mostly Cloudy,290,2013-01-22 15:55:00
10:55 AM,16.3,-1.3,46,30.52,10.0,WNW,5.8,-,N/A,,Overcast,290,2013-01-22 16:55:00
11:13 AM,17.6,-0.4,45,30.51,10.0,West,3.5,-,N/A,Snow,Light Snow,260,2013-01-22 17:13:00
11:34 AM,15.8,3.2,58,30.51,2.0,West,5.8,-,N/A,Snow,Light Snow,260,2013-01-22 17:34:00
11:36 AM,15.8,3.2,58,30.47,4.0,West,5.8,-,N/A,Snow,Light Snow,260,2013-01-22 17:36:00
11:55 AM,16.3,5.4,62,30.50,1.4,Variable,4.6,-,0.00,Snow,Light Snow,0,2013-01-22 17:55:00
12:06 PM,15.8,8.6,73,30.50,1.4,West,6.9,-,N/A,Snow,Light Snow,270,2013-01-22 18:06:00
12:19 PM,15.8,10.4,79,30.49,1.8,West,4.6,-,N/A,Snow,Light Snow,280,2013-01-22 18:19:00
12:27 PM,15.8,10.4,79,30.48,2.5,West,5.8,-,N/A,Snow,Light Snow,280,2013-01-22 18:27:00
12:55 PM,16.0,10.0,77,30.46,1.5,WNW,4.6,-,0.00,Snow,Light Snow,300,2013-01-22 18:55:00
1:40 PM,15.8,10.4,79,30.44,4.0,Calm,Calm,-,N/A,Snow,Light Snow,0,2013-01-22 19:40:00
1:52 PM,15.8,10.4,79,30.44,3.0,WSW,4.6,-,N/A,Snow,Light Snow,250,2013-01-22 19:52:00
1:55 PM,16.3,10.0,76,30.44,4.0,WSW,3.5,-,0.00,Snow,Light Snow,250,2013-01-22 19:55:00
2:39 PM,17.6,10.4,73,30.44,10.0,Calm,Calm,-,N/A,Snow,Light Snow,0,2013-01-22 20:39:00
2:55 PM,17.2,10.8,76,30.44,10.0,SW,3.5,-,0.00,Snow,Light Snow,230,2013-01-22 20:55:00
3:03 PM,17.6,10.4,73,30.44,10.0,Calm,Calm,-,N/A,,Overcast,0,2013-01-22 21:03:00
3:55 PM,17.6,10.9,75,30.43,10.0,Calm,Calm,-,0.00,,Overcast,0,2013-01-22 21:55:00
4:10 PM,17.6,12.2,79,30.43,10.0,Calm,Calm,-,N/A,,Overcast,0,2013-01-22 22:10:00
4:55 PM,17.4,11.1,76,30.42,10.0,Calm,Calm,-,N/A,,Overcast,0,2013-01-22 22:55:00
5:18 PM,17.6,12.2,79,30.43,10.0,Calm,Calm,-,N/A,,Overcast,0,2013-01-22 23:18:00
5:55 PM,17.2,11.5,78,30.42,10.0,Calm,Calm,-,N/A,,Overcast,0,2013-01-22 23:55:00
6:55 PM,17.4,10.9,76,30.42,10.0,Calm,Calm,-,N/A,,Overcast,0,2013-01-23 00:55:00
7:55 PM,17.6,11.8,78,30.41,10.0,SE,3.5,-,N/A,,Overcast,140,2013-01-23 01:55:00
8:55 PM,16.9,11.3,79,30.42,10.0,Calm,Calm,-,N/A,,Mostly Cloudy,0,2013-01-23 02:55:00
9:55 PM,15.1,11.3,85,30.41,10.0,East,3.5,-,N/A,,Clear,90,2013-01-23 03:55:00
10:55 PM,13.8,10.8,88,30.42,10.0,Calm,Calm,-,N/A,,Clear,0,2013-01-23 04:55:00
11:55 PM,12.2,10.8,94,30.42,10.0,Calm,Calm,-,N/A,,Clear,0,2013-01-23 05:55:00